N123SM KFMH-KSYR

Flight info

Callsign N123SM
Flight time N/A
Altitude 8000
Route BOS Q935 FABEN Q812 SYR
Aircraft DA42/L-SBDGRY/S

Departure

Time 2026-04-23 19:35
Airport Cape Cod Coast Guard Air Station (KFMH)

Arrival

Time N/A
Airport Syracuse Hancock International Airport (KSYR)
Time Latitude Longitude Altitude Speed Heading
2026-04-23 19:17 41.65318 -70.52021 119 ft 0 kts 128°
2026-04-23 19:32 41.65318 -70.52020 119 ft 4 kts 126°
2026-04-23 19:32 41.65349 -70.51971 117 ft 8 kts 45°
2026-04-23 19:32 41.65352 -70.51934 117 ft 10 kts 100°
2026-04-23 19:32 41.65315 -70.51818 117 ft 19 kts 122°
2026-04-23 19:33 41.65245 -70.51701 116 ft 16 kts 128°
2026-04-23 19:33 41.65176 -70.51586 115 ft 16 kts 123°
2026-04-23 19:33 41.65024 -70.51300 114 ft 13 kts 96°
2026-04-23 19:34 41.65054 -70.51211 113 ft 9 kts 31°
2026-04-23 19:34 41.65122 -70.51169 113 ft 14 kts 12°
2026-04-23 19:34 41.65287 -70.51291 114 ft 44 kts 307°
2026-04-23 19:35 41.65578 -70.51820 165 ft 88 kts 304°
2026-04-23 19:35 41.65946 -70.52529 431 ft 88 kts 331°
2026-04-23 19:35 41.66451 -70.52900 852 ft 80 kts 336°
2026-04-23 19:35 41.66950 -70.53233 1300 ft 79 kts 332°
2026-04-23 19:36 41.67435 -70.53554 1753 ft 78 kts 333°
2026-04-23 19:36 41.67919 -70.53868 2164 ft 78 kts 332°
2026-04-23 19:36 41.68395 -70.54174 2624 ft 75 kts 333°
2026-04-23 19:36 41.68864 -70.54461 3025 ft 74 kts 332°
2026-04-23 19:37 41.69327 -70.54755 3413 ft 73 kts 332°
2026-04-23 19:37 41.69787 -70.55054 3787 ft 74 kts 332°
2026-04-23 19:37 41.70243 -70.55355 4187 ft 73 kts 332°
2026-04-23 19:37 41.70696 -70.55653 4595 ft 73 kts 331°
2026-04-23 19:38 41.71153 -70.55957 4973 ft 73 kts 330°
2026-04-23 19:38 41.71611 -70.56259 5371 ft 73 kts 331°
2026-04-23 19:38 41.72068 -70.56561 5763 ft 73 kts 331°
2026-04-23 19:38 41.72527 -70.56864 6162 ft 74 kts 331°
2026-04-23 19:39 41.72986 -70.57167 6541 ft 73 kts 330°
2026-04-23 19:39 41.73436 -70.57463 6950 ft 71 kts 332°
2026-04-23 19:39 41.73872 -70.57751 7364 ft 69 kts 331°
2026-04-23 19:39 41.74292 -70.58026 7781 ft 66 kts 332°
2026-04-23 19:40 41.74698 -70.58294 8217 ft 64 kts 332°
2026-04-23 19:40 41.75094 -70.58554 8650 ft 63 kts 333°
2026-04-23 19:40 41.75479 -70.58808 9097 ft 60 kts 333°
2026-04-23 19:40 41.75839 -70.59047 9535 ft 56 kts 333°
2026-04-23 19:41 41.76188 -70.59278 9961 ft 56 kts 332°
2026-04-23 19:41 41.76530 -70.59504 10369 ft 54 kts 331°
2026-04-23 19:41 41.76853 -70.59717 10781 ft 50 kts 330°
2026-04-23 19:41 41.77157 -70.59917 11191 ft 48 kts 329°
2026-04-23 19:42 41.77444 -70.60106 11600 ft 44 kts 329°
2026-04-23 19:42 41.77709 -70.60279 12021 ft 40 kts 327°
2026-04-23 19:42 41.77951 -70.60438 12436 ft 37 kts 327°
2026-04-23 19:42 41.78178 -70.60588 12834 ft 35 kts 326°
2026-04-23 19:43 41.78388 -70.60727 13274 ft 32 kts 325°
2026-04-23 19:43 41.78581 -70.60855 13718 ft 29 kts 324°
2026-04-23 19:43 41.78755 -70.60970 14082 ft 28 kts 323°
2026-04-23 19:43 41.78930 -70.61086 14420 ft 28 kts 323°
2026-04-23 19:44 41.79104 -70.61201 14742 ft 28 kts 323°
2026-04-23 19:44 41.79279 -70.61316 15091 ft 28 kts 323°
2026-04-23 19:44 41.79453 -70.61431 15434 ft 28 kts 322°
2026-04-23 19:44 41.79628 -70.61547 15774 ft 28 kts 322°
2026-04-23 19:45 41.79800 -70.61660 16098 ft 28 kts 322°
2026-04-23 19:45 41.79973 -70.61774 16421 ft 28 kts 321°
2026-04-23 19:45 41.80147 -70.61889 16739 ft 28 kts 321°
2026-04-23 19:45 41.80321 -70.62004 17047 ft 28 kts 321°
2026-04-23 19:46 41.80499 -70.62122 17352 ft 29 kts 321°
2026-04-23 19:46 41.80677 -70.62239 17651 ft 29 kts 321°
2026-04-23 19:46 41.80855 -70.62357 17948 ft 29 kts 321°
2026-04-23 19:46 41.81102 -70.62523 17976 ft 50 kts 322°
2026-04-23 19:47 41.81465 -70.62763 17982 ft 66 kts 323°
2026-04-23 19:47 41.81918 -70.63061 17980 ft 78 kts 324°
2026-04-23 19:47 41.82407 -70.63381 18134 ft 78 kts 324°
2026-04-23 19:47 41.82897 -70.63704 18246 ft 79 kts 323°
2026-04-23 19:48 41.83389 -70.64030 18347 ft 79 kts 324°
2026-04-23 19:48 41.83885 -70.64358 18461 ft 79 kts 324°
2026-04-23 19:48 41.84376 -70.64683 18598 ft 79 kts 324°
2026-04-23 19:48 41.84872 -70.65010 18706 ft 79 kts 324°
2026-04-23 19:49 41.85365 -70.65336 18828 ft 79 kts 324°
2026-04-23 19:49 41.85860 -70.65664 18934 ft 80 kts 324°
2026-04-23 19:49 41.86356 -70.65991 19054 ft 79 kts 324°
2026-04-23 19:49 41.86853 -70.66320 19183 ft 80 kts 324°
2026-04-23 19:50 41.87350 -70.66650 19269 ft 80 kts 324°
2026-04-23 19:50 41.87848 -70.66980 19355 ft 80 kts 324°
2026-04-23 19:50 41.88344 -70.67308 19465 ft 79 kts 324°
2026-04-23 19:50 41.88841 -70.67637 19575 ft 80 kts 324°
2026-04-23 19:51 41.89341 -70.67968 19693 ft 80 kts 324°
2026-04-23 19:51 41.89840 -70.68298 19796 ft 80 kts 324°
2026-04-23 19:51 41.90342 -70.68631 19865 ft 82 kts 324°
2026-04-23 19:51 41.90871 -70.68983 19866 ft 87 kts 325°
2026-04-23 19:52 41.91423 -70.69349 19868 ft 90 kts 325°
2026-04-23 19:52 41.91995 -70.69729 19870 ft 93 kts 325°
2026-04-23 19:52 41.92581 -70.70116 19869 ft 94 kts 325°
2026-04-23 19:52 41.93171 -70.70507 19870 ft 95 kts 325°
2026-04-23 19:53 41.93765 -70.70901 19871 ft 96 kts 325°
2026-04-23 19:53 41.94361 -70.71296 19873 ft 96 kts 325°
2026-04-23 19:53 41.94962 -70.71694 19874 ft 96 kts 325°
2026-04-23 19:53 41.95563 -70.72094 19873 ft 96 kts 325°
2026-04-23 19:54 41.96164 -70.72492 19875 ft 96 kts 325°
2026-04-23 19:54 41.96769 -70.72894 19874 ft 97 kts 325°
2026-04-23 19:54 41.97377 -70.73297 19874 ft 97 kts 325°
2026-04-23 19:54 41.97984 -70.73702 19876 ft 98 kts 325°
2026-04-23 19:55 41.98595 -70.74107 19876 ft 98 kts 325°
2026-04-23 19:55 41.99209 -70.74515 19878 ft 98 kts 326°
2026-04-23 19:55 41.99816 -70.74922 19879 ft 96 kts 324°
2026-04-23 19:55 42.00412 -70.75331 19878 ft 96 kts 326°
2026-04-23 19:56 42.01004 -70.75734 19876 ft 96 kts 326°
2026-04-23 19:56 42.01603 -70.76114 19883 ft 95 kts 326°
2026-04-23 19:56 42.02194 -70.76504 19883 ft 95 kts 326°
2026-04-23 19:56 42.02786 -70.76892 19884 ft 94 kts 326°
2026-04-23 19:57 42.03366 -70.77276 19883 ft 94 kts 326°
2026-04-23 19:57 42.03953 -70.77669 19887 ft 94 kts 325°
2026-04-23 19:57 42.04539 -70.78059 19886 ft 94 kts 326°
2026-04-23 19:57 42.05124 -70.78448 19887 ft 94 kts 326°
2026-04-23 19:58 42.05713 -70.78840 19887 ft 94 kts 326°
2026-04-23 19:58 42.06302 -70.79233 19888 ft 94 kts 326°
2026-04-23 19:58 42.06890 -70.79626 19888 ft 95 kts 326°
2026-04-23 19:58 42.07478 -70.80018 19887 ft 94 kts 325°
2026-04-23 19:59 42.08067 -70.80411 19886 ft 94 kts 325°
2026-04-23 19:59 42.08656 -70.80804 19887 ft 94 kts 326°
2026-04-23 19:59 42.09241 -70.81194 19886 ft 94 kts 325°
2026-04-23 19:59 42.09824 -70.81582 19886 ft 93 kts 326°
2026-04-23 20:00 42.10405 -70.81969 19885 ft 93 kts 326°
2026-04-23 20:00 42.10985 -70.82356 19882 ft 93 kts 326°
2026-04-23 20:00 42.11565 -70.82743 19881 ft 93 kts 325°
2026-04-23 20:00 42.12141 -70.83127 19882 ft 93 kts 325°
2026-04-23 20:01 42.12721 -70.83516 19883 ft 93 kts 325°
2026-04-23 20:01 42.13302 -70.83904 19884 ft 93 kts 325°
2026-04-23 20:01 42.13882 -70.84291 19886 ft 93 kts 325°
2026-04-23 20:01 42.14465 -70.84681 19885 ft 94 kts 326°
2026-04-23 20:02 42.15048 -70.85070 19885 ft 93 kts 326°
2026-04-23 20:02 42.15629 -70.85458 19885 ft 93 kts 325°
2026-04-23 20:02 42.16211 -70.85848 19885 ft 94 kts 325°
2026-04-23 20:02 42.16795 -70.86239 19885 ft 94 kts 325°
2026-04-23 20:03 42.17378 -70.86629 19885 ft 93 kts 325°
2026-04-23 20:03 42.17959 -70.87017 19885 ft 93 kts 325°
2026-04-23 20:03 42.18537 -70.87405 19884 ft 93 kts 325°
2026-04-23 20:03 42.19119 -70.87794 19878 ft 93 kts 325°
2026-04-23 20:04 42.19697 -70.88186 19856 ft 93 kts 326°
2026-04-23 20:04 42.20284 -70.88576 19866 ft 95 kts 326°
2026-04-23 20:04 42.20884 -70.88974 19864 ft 97 kts 326°
2026-04-23 20:04 42.21485 -70.89376 19880 ft 97 kts 327°
2026-04-23 20:05 42.21884 -70.89643 19879 ft 97 kts 326°
2026-04-23 20:05 42.22684 -70.90179 19879 ft 95 kts 326°
2026-04-23 20:05 42.23277 -70.90578 19876 ft 95 kts 326°
2026-04-23 20:05 42.23866 -70.90972 19878 ft 94 kts 326°
2026-04-23 20:06 42.24454 -70.91365 19877 ft 94 kts 326°
2026-04-23 20:06 42.25039 -70.91758 19880 ft 94 kts 326°
2026-04-23 20:06 42.25625 -70.92152 19879 ft 94 kts 326°
2026-04-23 20:06 42.26210 -70.92544 19880 ft 94 kts 326°
2026-04-23 20:07 42.26794 -70.92936 19878 ft 94 kts 326°
2026-04-23 20:07 42.27370 -70.93323 19878 ft 93 kts 326°
2026-04-23 20:07 42.27949 -70.93712 19878 ft 93 kts 326°
2026-04-23 20:07 42.28530 -70.94101 19878 ft 93 kts 326°
2026-04-23 20:08 42.29109 -70.94491 19877 ft 93 kts 326°
2026-04-23 20:08 42.29689 -70.94881 19876 ft 93 kts 326°
2026-04-23 20:08 42.30269 -70.95270 19876 ft 93 kts 326°
2026-04-23 20:08 42.30847 -70.95658 19876 ft 93 kts 326°
2026-04-23 20:09 42.31429 -70.96049 19876 ft 93 kts 326°
2026-04-23 20:09 42.32008 -70.96438 19877 ft 93 kts 326°
2026-04-23 20:09 42.32586 -70.96834 19879 ft 93 kts 325°
2026-04-23 20:09 42.33138 -70.97282 19878 ft 92 kts 323°
2026-04-23 20:10 42.33494 -70.97618 19878 ft 92 kts 321°
2026-04-23 20:10 42.34177 -70.98394 19855 ft 102 kts 317°
2026-04-23 20:10 42.34633 -70.99013 20035 ft 94 kts 316°
2026-04-23 20:10 42.35068 -70.99715 19914 ft 100 kts 314°
2026-04-23 20:11 42.35468 -71.00494 19878 ft 100 kts 311°
2026-04-23 20:11 42.35810 -71.01309 19878 ft 100 kts 308°
2026-04-23 20:11 42.36099 -71.02169 19877 ft 101 kts 306°
2026-04-23 20:11 42.36333 -71.03068 19876 ft 102 kts 302°
2026-04-23 20:12 42.36580 -71.03805 19638 ft 80 kts 324°
2026-04-23 20:12 42.37283 -71.03273 17923 ft 208 kts 18°
2026-04-23 20:12 42.37648 -71.00953 16843 ft 294 kts 91°
2026-04-23 20:12 42.37027 -70.98431 13551 ft 254 kts 111°
2026-04-23 20:13 42.37486 -70.96928 12107 ft 287 kts 55°
2026-04-23 20:13 42.37170 -70.94570 11951 ft 263 kts 135°
2026-04-23 20:13 42.35894 -70.94834 8925 ft 181 kts 264°